Flag for Japan Weather past 2 weeks in Yokohama, Japan

Now
66 °F

Passing clouds.


Feels Like: 66 °F
Forecast: 64 / 74 °F
Wind: 15 mph from South

Location: Tokyo International Airport

Current Time: May 4, 2015 at 12:00:17 AM

Latest Report: May 3, 2015 at 11:30 PM


Visibility: N/A

Pressure: 29.86 "Hg

Humidity: 88%

Dew point: 63 °F

Location of YokohamaLocation

Historic Weather in Yokohama — Graph

°F

Yokohama temperature yesterday

Maximum temperature yesterday: 79 °F (at 2:00 PM)
Minimum temperature yesterday: 64 °F (at 1:00 AM)
Average temperature yesterday: 69 °F

Past Weeks' High & Low Weather Summary

 TemperatureHumidityPressure
High79 °F (May 2, 2:00 PM)100% (Apr 20, 6:30 PM)30.21 "Hg (Apr 20, 6:30 PM)
Low52 °F (Apr 19, 4:00 AM)33% (Apr 26, 3:00 PM)29.47 "Hg (Apr 21, 1:00 AM)
Average65 °F74%29.98 "Hg
* Reported Apr 18 10:00 PM — May 3 10:30 PM, Yokohama, Weather by CustomWeather, © 2015

Note: Actual official high and low records may vary slightly from our data, if they occured in-between our weather recording intervals... More about our weather records

Advertising

Yokohama weather history for previous 24 hours

 ConditionsComfort  
Time TempWeatherWind HumidityBarometerVisibility
10:30 PM
Sun, May 3
66 °FPassing clouds.16 mph83%29.89 "HgN/A
10:00 PM66 °FPassing clouds.14 mph83%29.89 "HgN/A
9:30 PM66 °FPassing clouds.14 mph83%29.89 "HgN/A
9:00 PM68 °FPassing clouds.14 mph73%29.89 "HgN/A
8:30 PM68 °FPassing clouds.17 mph69%29.89 "HgN/A
8:00 PM68 °FPassing clouds.16 mph60%29.89 "HgN/A
7:30 PM70 °FPassing clouds.16 mph60%29.86 "HgN/A
7:00 PM70 °FPassing clouds.17 mph60%29.86 "HgN/A
6:30 PM70 °FPassing clouds.16 mph50%29.86 "HgN/A
6:00 PM72 °FPartly sunny.18 mph36%29.86 "HgN/A
5:30 PM73 °FPartly sunny.17 mph41%29.86 "HgN/A
5:00 PM73 °FPartly sunny.17 mph50%29.86 "HgN/A
4:30 PM73 °FPartly sunny.17 mph50%29.86 "HgN/A
4:00 PM75 °FPartly sunny.16 mph44%29.86 "HgN/A
3:30 PM77 °FPartly sunny.15 mph47%29.86 "HgN/A
3:00 PM75 °FPartly sunny.15 mph50%29.86 "HgN/A
2:30 PM77 °FPartly sunny.14 mph51%29.86 "HgN/A
2:00 PM79 °FPartly sunny.13 mph42%29.89 "HgN/A
1:30 PM77 °FPartly sunny.8 mph51%29.89 "HgN/A
1:00 PM75 °FPartly sunny.8 mph50%29.92 "HgN/A
12:30 PM73 °FPartly sunny.7 mph50%29.92 "HgN/A
11:30 AM73 °FPartly sunny.6 mph57%29.95 "HgN/A
11:00 AM72 °FScattered clouds.7 mph65%29.98 "HgN/A
10:30 AM72 °FScattered clouds.6 mph65%29.98 "HgN/A
10:00 AM72 °FPartly sunny.6 mph65%29.98 "HgN/A
9:30 AM70 °FPartly sunny.7 mph73%30.01 "HgN/A
9:00 AM68 °FPartly sunny.6 mph83%29.98 "HgN/A
8:30 AM68 °FPartly sunny.6 mph83%29.98 "HgN/A
8:00 AM66 °FPartly sunny.7 mph83%29.98 "HgN/A
7:30 AM68 °FPartly sunny.5 mph83%29.98 "HgN/A
7:00 AM66 °FPartly sunny.3 mph88%29.98 "HgN/A
6:30 AM64 °FPartly sunny.3 mph94%29.98 "HgN/A
6:00 AM64 °FBroken clouds.5 mph94%29.98 "HgN/A
5:30 AM64 °FScattered clouds.3 mph94%29.98 "Hg4 mi
5:00 AM64 °FFog.7 mph94%29.98 "Hg4 mi
4:30 AM64 °FPassing clouds.8 mph94%29.98 "Hg4 mi
4:00 AM64 °FPartly cloudy.8 mph94%29.98 "Hg5 mi
3:30 AM64 °FPassing clouds.6 mph94%29.98 "HgN/A
3:00 AM66 °FPassing clouds.7 mph94%29.98 "HgN/A
2:30 AM64 °FPassing clouds.3 mph94%29.98 "HgN/A
2:00 AM66 °FPassing clouds.2 mph88%29.98 "HgN/A
1:30 AM66 °FPassing clouds.2 mph88%29.98 "HgN/A
1:00 AM64 °FPassing clouds.3 mph94%30.01 "HgN/A
12:30 AM66 °FPassing clouds.5 mph88%30.01 "HgN/A
12:00 AM66 °FPassing clouds.5 mph88%30.01 "HgN/A
Weather by CustomWeather, © 2015

See weather overviewHow to use our weather pages